Location: Marsån
(66.4167°N, 22.2833°E)
Time: 10:21:46
(UTC+00:00)

Cosmos 1386 Rocket - Pass Details

Date: 24 February 2024
Orbit: 929 x 1004 km, 83.0° (Epoch: 15 April)

Event Time Altitude Azimuth Distance (km) Brightness Sun altitude
Rises 20:46:29 0° 343° (NNW) 3,605 8.6 -29.6°
Reaches altitude 10° 20:48:58 10° 342° (NNW) 2,655 7.6 -29.7°
Enters shadow 20:54:50 79° 282° (WNW) 957 4.4 -30.0°
